Munising, MI

12:44 PM EST on December 09, 2016 (GMT -0500)
Munising

Weather History for KP53 - October, 2012

Change the Weather History Date:

Monday, October 22, 2012

  Actual Average (KISQ) Record (KISQ)
Temperature  
Mean Temperature 50 °F -  
Max Temperature 57 °F 51 °F 65 °F (1963)
Min Temperature 44 °F 36 °F 22 °F (1969)
Degree Days  
Heating Degree Days 16    
Moisture  
Dew Point 46 °F    
Average Humidity 84    
Maximum Humidity 93    
Minimum Humidity 74    
Precipitation  
Precipitation 0.00 in - - ()
Sea Level Pressure  
Sea Level Pressure 30.03 in    
Wind  
Wind Speed 6 mph (NW)    
Max Wind Speed 13 mph    
Max Gust Speed -    
Averages and records for this station are not official NWS values.
T = Trace of Precipitation, MM = Missing Value Source: NWS Daily Summary

Daily Weather History Graph

Daily Weather History Graph

Search for Another Location

Airport or City:

Trip Planner

Search our weather history database for the weather conditions in past years. The results will help you decide how hot, cold, wet, or windy it might be!

Date:

Astronomy

Oct. 22, 2012 Rise Set
Actual Time 8:14 AM EDT 6:46 PM EDT
Civil Twilight 7:43 AM EDT 7:17 PM EDT
Nautical Twilight 7:08 AM EDT 7:52 PM EDT
Astronomical Twilight 6:33 AM EDT 8:27 PM EDT
Moon 3:16 PM EDT (10/22) 12:36 AM EDT (10/22)
Length of Visible Light 11h 33m
Length of Day
10h 32m
First Quarter, 56% of the Moon is Illuminated
Oct 22
First Quarter
Oct 29
Full
Nov 6
Last Quarter
Nov 13
New
Nov 20
First Quarter

Hourly Weather History & Observations

Time (EDT) Temp. Windchill Dew Point Humidity Pressure Visibility Wind Dir Wind Speed Gust Speed Precip Events Conditions
12:56 AM 48.0 °F - 43.0 °F 83% 30.01 in - SSW 5.8 mph - N/A   Unknown
1:56 AM 48.0 °F - 44.1 °F 86% 30.01 in - South 4.6 mph - N/A   Unknown
2:56 AM 48.0 °F - 44.1 °F 86% 30.00 in - South 4.6 mph - N/A   Unknown
3:56 AM 48.0 °F - 44.1 °F 86% 29.99 in - South 4.6 mph - N/A   Unknown
4:56 AM 48.9 °F - 45.0 °F 86% 29.98 in - SSW 5.8 mph - N/A   Unknown
5:56 AM 45.0 °F - 42.1 °F 90% 29.99 in - Calm Calm - N/A   Unknown
6:56 AM 46.0 °F 44.8 °F 43.0 °F 89% 29.99 in - SW 3.5 mph - N/A   Unknown
7:56 AM 44.1 °F 42.5 °F 42.1 °F 93% 30.01 in - South 3.5 mph - N/A   Unknown
8:56 AM 46.0 °F - 43.0 °F 89% 30.02 in - Calm Calm - N/A   Unknown
9:56 AM 48.0 °F - 45.0 °F 89% 30.03 in - South 3.5 mph - N/A   Unknown
10:56 AM - - - N/A% 30.03 in - North - - N/A   Unknown
11:56 AM 54.0 °F - 46.9 °F 77% 30.05 in - ENE 3.5 mph - N/A   Unknown
12:56 PM 55.0 °F - 46.9 °F 74% 30.05 in - NNW 9.2 mph - N/A   Unknown
1:56 PM 55.9 °F - 48.0 °F 75% 30.05 in - NNW 11.5 mph - N/A   Unknown
2:56 PM 55.9 °F - 48.0 °F 75% 30.04 in - NNW 8.1 mph - N/A   Unknown
3:56 PM 54.0 °F - 48.0 °F 80% 30.03 in - NNW 12.7 mph - N/A   Unknown
4:56 PM 53.1 °F - 48.0 °F 83% 30.04 in - NW 10.4 mph - N/A   Unknown
5:56 PM 52.0 °F - 46.9 °F 83% 30.05 in - NW 8.1 mph - N/A   Unknown
6:56 PM 51.1 °F - 46.9 °F 86% 30.05 in - NNW 8.1 mph - N/A   Unknown
7:56 PM 52.0 °F - 48.0 °F 86% 30.05 in - North 8.1 mph - N/A   Unknown
8:56 PM 53.1 °F - 48.0 °F 83% 30.05 in - North 9.2 mph - N/A   Unknown
9:56 PM 52.0 °F - 48.9 °F 89% 30.06 in - North 8.1 mph - N/A   Unknown
10:56 PM 52.0 °F - 48.0 °F 86% 30.04 in - NNE 10.4 mph - N/A   Unknown
11:56 PM 52.0 °F - 48.0 °F 86% 30.03 in - NE 4.6 mph - N/A   Unknown